[[{"header":{"parameterUnit":"m.s-1","parameterCategory":1,"la1":30.2991,"la2":30.254,"lo1":-89.0895,"lo2":-89.0444,"dy":0.0017,"dx":0.0017,"nx":28,"ny":28,"refTime":"2025-03-27T03:00:00:Z","depth":0,"parameterNumber":2,"parameterNumberName":"U-component_of_WINDS"},"data":[0,0,0,0,0,0,0,0,0,0,0,0,0,0,0,0,0,0,0,0,0,0,0,0,0,0,0,0,0,0,0,0,0,0,0,0,0,0,0,0,0,0,0,0,0,0,0,0,0,0,0,0,0,0,0,0,0,0,-4.782,-4.7822,0,-4.7957,-4.7958,-4.796,-4.797,-4.7968,-4.7967,-4.7965,-4.8103,-4.8108,-4.8113,0,0,0,0,0,0,0,0,0,0,0,0,0,-4.7568,-4.7573,-4.782,-4.7822,-4.7823,-4.7956,-4.7958,-4.796,-4.797,-4.7968,-4.7966,-4.7964,-4.8102,-4.8108,-4.8114,0,0,0,0,0,0,0,0,0,0,0,0,0,-4.7688,-4.7574,-4.782,-4.7844,-4.7848,-4.7956,-4.7958,-4.7961,-4.797,-4.7968,-4.7966,-4.7964,-4.81,-4.8107,-4.8115,-4.8207,0,0,-4.8138,-4.8141,0,0,0,0,0,0,0,0,-4.7681,-4.7697,-4.7839,-4.7843,-4.7847,-4.7944,-4.792,-4.8043,-4.7971,-4.7924,-4.7965,-4.7962,-4.8052,-4.8063,-4.8094,-4.8213,-4.8219,-4.8139,-4.8143,-4.8147,-4.8149,0,0,0,0,0,0,0,-4.7673,-4.7692,-4.7874,-4.7841,-4.7846,-4.7849,-4.7863,-4.7943,-4.7999,-4.7928,-4.7929,-4.7945,-4.8054,-4.8087,-4.8097,-4.8221,-4.8138,-4.8145,-4.815,-4.8153,-4.8425,-4.8427,0,0,0,0,0,0,-4.766,-4.7685,-4.787,-4.7878,-4.7757,-4.7855,-4.7871,-4.7915,-4.7998,-4.8008,-4.7947,-4.7945,-4.8075,-4.8088,-4.8102,-4.8216,-4.8146,-4.8154,-4.8158,-4.8422,-4.8426,-4.8428,0,0,0,0,0,0,-4.7655,-4.7676,-4.7864,-4.7782,-4.7806,-4.7862,-4.7911,-4.7919,-4.7952,-4.8012,-4.8022,-4.797,-4.8073,-4.8091,-4.8181,-4.8221,-4.8157,-4.8164,-4.8419,-4.8423,-4.8427,-4.8444,0,0,0,0,0,0,-4.7647,-4.7674,-4.771,-4.7782,-4.781,-4.7941,-4.7913,-4.7923,-4.7965,-4.7964,-4.8037,-4.8047,-4.8073,-4.817,-4.8189,-4.823,-4.817,-4.8416,-4.8421,-4.8426,-4.844,-4.8448,-4.8455,0,0,0,0,0,-4.7638,-4.7708,-4.7711,-4.7734,-4.7856,-4.7943,-4.7959,-4.7988,-4.7968,-4.8004,-4.8044,-4.8044,-4.8214,-4.8179,-4.82,-4.8245,-4.8413,-4.842,-4.8425,-4.8437,-4.8446,-4.8455,0,0,0,0,0,0,-4.7638,-4.7718,-4.7722,-4.7818,-4.7874,-4.7944,-4.799,-4.7997,-4.8059,-4.8055,-4.8089,-4.8105,-4.8194,-4.8229,-4.8188,-4.8339,-4.8312,-4.8322,-4.8313,-4.8322,-4.833,-4.8319,-4.8176,0,0,0,0,0,-4.7649,-4.7713,-4.778,-4.7859,-4.7886,-4.7934,-4.7973,-4.7991,-4.805,-4.8073,-4.8119,-4.8175,-4.8242,-4.8284,-4.8349,-4.8446,-4.8462,-4.8487,-4.8495,-4.85,-4.8508,-4.8563,-4.8575,-4.8448,-4.8448,-4.8448,0,0,-4.7672,-4.7724,-4.7763,-4.786,-4.7905,-4.7971,-4.7953,-4.8024,-4.8073,-4.8083,-4.8171,-4.8207,-4.8273,-4.8367,-4.8411,-4.8398,-4.8548,-4.8508,-4.8512,-4.8517,-4.8571,-4.8583,-4.8593,-4.8452,-4.8451,-4.8451,0,0,-4.7748,-4.7794,-4.7865,-4.7911,-4.798,-4.8012,-4.8029,-4.8099,-4.8124,-4.8213,-4.8223,-4.8282,-4.8395,-4.8442,-4.848,-4.8577,-4.858,-4.8597,-4.8635,-4.8688,-4.8698,-4.8707,-4.8741,-4.8753,-4.8606,-4.8606,-4.8606,0,-4.7768,-4.7868,-4.79,-4.7971,-4.8013,-4.8028,-4.8099,-4.8143,-4.8229,-4.8258,-4.8244,-4.8387,-4.8432,-4.8538,-4.8562,-4.8593,-4.8613,-4.8588,-4.8694,-4.8704,-4.8712,-4.8745,-4.8758,-4.8607,-4.8607,-4.8607,-4.8607,0,-4.7889,-4.7959,-4.8007,-4.8091,-4.814,-4.8211,-4.8253,-4.8299,-4.8314,-4.8347,-4.8438,-4.8493,-4.8569,-4.8596,-4.8611,-4.8705,-4.8695,-4.8687,-4.866,-4.8726,-4.8757,-4.877,-4.861,-4.8609,-4.8609,-4.8608,0,0,-4.7966,-4.8069,-4.8086,-4.8125,-4.8203,-4.8258,-4.833,-4.8405,-4.8443,-4.8503,-4.8565,-4.8662,-4.8655,-4.8699,-4.872,-4.8767,-4.884,-4.8753,-4.8755,-4.8767,-4.8947,-4.8951,-4.8965,-4.8844,-4.8846,-4.8848,-4.8941,0,-4.805,-4.8178,-4.8211,-4.832,-4.8385,-4.8401,-4.8464,-4.852,-4.8554,-4.8614,-4.8651,-4.8719,-4.8706,-4.8733,-4.878,-4.8821,-4.8876,-4.8815,-4.89,-4.8903,-4.8881,-4.8982,-4.8986,-4.9071,-4.8954,-4.8956,-4.8957,0,-4.8164,-4.8228,-4.8344,-4.8416,-4.8444,-4.85,-4.8573,-4.863,-4.8694,-4.8715,-4.8766,-4.8782,-4.8859,-4.8829,-4.8935,-4.8893,-4.893,-4.8956,-4.896,-4.8967,-4.8933,-4.8991,-4.9099,-4.9111,-4.8977,-4.8976,-4.8974,0,-4.8208,-4.8322,-4.8407,-4.844,-4.8526,-4.8565,-4.8603,-4.8664,-4.8708,-4.8772,-4.8801,-4.8872,-4.8911,-4.8966,-4.9002,-4.8978,-4.9105,-4.9079,-4.9125,-4.9124,-4.9149,-4.9146,-4.9263,-4.9176,-4.9175,-4.9175,-4.9175,0,-4.8297,-4.8368,-4.8428,-4.848,-4.856,-4.8597,-4.8675,-4.8713,-4.8768,-4.8828,-4.8847,-4.8903,-4.8947,-4.9009,-4.9038,-4.9121,-4.9139,-4.9158,-4.9165,-4.9156,-4.9153,-4.9179,-4.9174,-4.9179,-4.9178,-4.9177,-4.9177,0,-4.8358,-4.8401,-4.8495,-4.8569,-4.859,-4.8645,-4.8709,-4.8761,-4.8796,-4.8872,-4.8892,-4.8947,-4.9022,-4.9064,-4.9157,-4.9176,-4.9269,-4.9273,-4.9247,-4.925,-4.9293,-4.9288,-4.9429,-4.9449,-4.935,-4.9351,-4.9351,0,-4.8411,-4.8466,-4.8547,-4.8589,-4.8627,-4.8694,-4.874,-4.8779,-4.8826,-4.8904,-4.8946,-4.9021,-4.9084,-4.9202,-4.9251,-4.9323,-4.9328,-4.9373,-4.9339,-4.9328,-4.9328,-4.9323,-4.9329,-4.9378,-4.9378,-4.9379,-4.938,0,-4.8502,-4.8521,-4.8585,-4.8658,-4.8712,-4.8771,-4.883,-4.8863,-4.8913,-4.8964,-4.9041,-4.9089,-4.9186,-4.926,-4.9337,-4.9376,-4.9386,-4.9391,-4.9405,-4.9395,-4.9378,-4.9387,-4.9262,-4.9387,-4.9386,-4.9385,-4.9385,-4.9385,-4.856,-4.861,-4.8675,-4.8747,-4.8795,-4.885,-4.8902,-4.8945,-4.901,-4.9092,-4.9111,-4.9192,-4.9256,-4.936,-4.9401,-4.9465,-4.9457,-4.9478,-4.9483,-4.9487,-4.9488,-4.9369,-4.9479,-4.9479,-4.9479,-4.9479,-4.9479,0,-4.865,-4.8694,-4.876,-4.8842,-4.8898,-4.8905,-4.8971,-4.9018,-4.9089,-4.9148,-4.921,-4.9298,-4.9372,-4.9427,-4.9503,-4.9543,-4.955,-4.9562,-4.9558,-4.9567,-4.9492,-4.9471,-4.9555,-4.9555,-4.9555,-4.9555,-4.9555,-4.9555,-4.8704,-4.8789,-4.8816,-4.8926,-4.8969,-4.9048,-4.9085,-4.9136,-4.9184,-4.9282,-4.9343,-4.938,-4.9438,-4.9518,-4.9586,-4.96,-4.9627,-4.9638,-4.9653,-4.958,-4.9572,-4.9564,-4.9545,-4.9643,-4.9643,-4.9723,-4.9723,-4.9724]},{"header":{"parameterUnit":"m.s-1","parameterCategory":1,"la1":30.2991,"la2":30.254,"lo1":-89.0895,"lo2":-89.0444,"dy":0.0017,"dx":0.0017,"nx":28,"ny":28,"refTime":"2025-03-27T03:00:00:Z","depth":0,"parameterNumber":3,"parameterNumberName":"V-component_of_WINDS"},"data":[0,0,0,0,0,0,0,0,0,0,0,0,0,0,0,0,0,0,0,0,0,0,0,0,0,0,0,0,0,0,0,0,0,0,0,0,0,0,0,0,0,0,0,0,0,0,0,0,0,0,0,0,0,0,0,0,0,0,3.9366,3.9367,0,3.9441,3.9442,3.9443,3.9501,3.9502,3.9502,3.9503,3.9577,3.9579,3.958,0,0,0,0,0,0,0,0,0,0,0,0,0,3.9272,3.9273,3.9366,3.9367,3.9368,3.9441,3.9442,3.9443,3.9501,3.9502,3.9503,3.9503,3.9577,3.9578,3.958,0,0,0,0,0,0,0,0,0,0,0,0,0,3.9326,3.9274,3.9366,3.9406,3.941,3.9441,3.9442,3.9443,3.9501,3.9502,3.9503,3.9504,3.9576,3.9578,3.958,3.9577,0,0,3.9587,3.9588,0,0,0,0,0,0,0,0,3.9323,3.933,3.9399,3.9403,3.9408,3.9463,3.9436,3.9488,3.9501,3.9466,3.9503,3.9504,3.9538,3.9544,3.9556,3.958,3.9583,3.9587,3.9588,3.9589,3.959,0,0,0,0,0,0,0,3.9319,3.9327,3.9396,3.94,3.9405,3.942,3.9428,3.9446,3.9497,3.947,3.9474,3.9482,3.9541,3.9553,3.9558,3.9584,3.9587,3.9589,3.959,3.9591,3.9613,3.9612,0,0,0,0,0,0,3.931,3.9323,3.9393,3.9398,3.9367,3.9421,3.943,3.9444,3.9497,3.9505,3.9481,3.9485,3.9549,3.9555,3.9561,3.9562,3.9589,3.9591,3.9593,3.9613,3.9612,3.9612,0,0,0,0,0,0,3.9307,3.9315,3.939,3.9362,3.9373,3.9421,3.9437,3.9445,3.9458,3.9506,3.9515,3.9485,3.955,3.9558,3.9573,3.9565,3.9592,3.9594,3.9614,3.9613,3.9612,3.9563,0,0,0,0,0,0,3.9304,3.9314,3.9313,3.9361,3.9374,3.9402,3.9436,3.9446,3.9462,3.9467,3.9512,3.952,3.9552,3.957,3.9575,3.9569,3.9596,3.9615,3.9614,3.9612,3.9566,3.9561,3.9556,0,0,0,0,0,3.9301,3.9295,3.9313,3.9321,3.9374,3.9401,3.9408,3.9446,3.9461,3.9461,3.9492,3.9518,3.9565,3.9571,3.9578,3.9572,3.9616,3.9614,3.9613,3.9568,3.9562,3.9556,0,0,0,0,0,0,3.9243,3.9302,3.9322,3.9332,3.9362,3.9411,3.9412,3.9437,3.9462,3.9465,3.951,3.952,3.9531,3.9553,3.9558,3.9572,3.9594,3.9594,3.9558,3.9552,3.9547,3.9542,3.9598,0,0,0,0,0,3.9232,3.925,3.93,3.9304,3.9318,3.9362,3.9375,3.9402,3.9433,3.9445,3.9477,3.9506,3.9528,3.9541,3.9563,3.9569,3.958,3.9568,3.9564,3.9559,3.9559,3.9566,3.9562,3.9606,3.9606,3.9606,0,0,3.9208,3.9243,3.9251,3.9293,3.9319,3.9336,3.9372,3.9388,3.9402,3.9448,3.9465,3.949,3.9525,3.9536,3.9543,3.9555,3.9549,3.9557,3.9554,3.9555,3.9564,3.9559,3.9556,3.9605,3.9605,3.9606,0,0,3.9175,3.9202,3.921,3.9235,3.9274,3.9304,3.9306,3.9352,3.9371,3.9389,3.9425,3.9441,3.9477,3.9501,3.9518,3.9496,3.9522,3.9502,3.9477,3.9484,3.948,3.9477,3.9471,3.9468,3.9501,3.9501,3.9501,0,3.914,3.9169,3.921,3.9225,3.9243,3.9288,3.9296,3.9318,3.9362,3.9374,3.9387,3.9434,3.9461,3.948,3.9475,3.9486,3.9491,3.9498,3.9477,3.9475,3.9473,3.9468,3.9465,3.9499,3.9499,3.9499,3.9499,0,3.9126,3.9145,3.9146,3.9189,3.9207,3.9219,3.9262,3.9275,3.9301,3.9329,3.9349,3.9382,3.9414,3.942,3.9444,3.9443,3.9449,3.9469,3.9492,3.9465,3.9461,3.9459,3.9495,3.9496,3.9497,3.9497,0,0,3.9057,3.9125,3.9125,3.9146,3.9193,3.9208,3.9222,3.9254,3.9266,3.9294,3.9308,3.9338,3.9358,3.9377,3.9405,3.941,3.9393,3.943,3.9431,3.9423,3.9396,3.9382,3.9379,3.941,3.941,3.941,3.9394,0,3.9032,3.9061,3.9099,3.9115,3.9134,3.9177,3.919,3.922,3.9247,3.9267,3.9297,3.9319,3.9342,3.9355,3.9362,3.9394,3.9388,3.9395,3.9424,3.9425,3.9415,3.9376,3.9361,3.9344,3.9392,3.9392,3.9392,0,3.9007,3.9036,3.9054,3.9102,3.9111,3.9122,3.9155,3.9173,3.9209,3.9229,3.9252,3.9282,3.9299,3.9319,3.9345,3.9349,3.9363,3.938,3.9381,3.9386,3.9407,3.9381,3.9339,3.9337,3.9389,3.9389,3.939,0,3.8958,3.9001,3.9018,3.9034,3.909,3.9097,3.912,3.9157,3.9174,3.9203,3.9215,3.9245,3.9261,3.9284,3.9322,3.9333,3.9344,3.9366,3.9361,3.936,3.9362,3.9362,3.9322,3.9369,3.9369,3.9369,3.9369,0,3.8927,3.8936,3.8997,3.9007,3.902,3.9064,3.9075,3.9102,3.9135,3.9152,3.919,3.9205,3.9254,3.9274,3.9304,3.9321,3.9328,3.9345,3.9353,3.9342,3.934,3.9353,3.9355,3.9368,3.9368,3.9369,3.9369,0,3.8874,3.8915,3.8936,3.8988,3.9001,3.9009,3.9053,3.9065,3.9095,3.9116,3.9123,3.9171,3.9197,3.9237,3.9275,3.9295,3.9309,3.9321,3.9297,3.9302,3.9295,3.9296,3.9264,3.9262,3.9308,3.9307,3.9307,0,3.8852,3.8861,3.8914,3.8929,3.8952,3.8974,3.8993,3.9037,3.9055,3.9097,3.9104,3.9134,3.9161,3.9201,3.9239,3.9269,3.9283,3.9269,3.9287,3.9277,3.9285,3.9284,3.9286,3.9265,3.9265,3.9264,3.9263,0,3.881,3.883,3.8856,3.8889,3.8911,3.8939,3.8968,3.8978,3.9028,3.9047,3.9075,3.9096,3.9136,3.9165,3.9201,3.9225,3.9253,3.9258,3.9258,3.9248,3.9235,3.9244,3.9287,3.9258,3.9259,3.9259,3.9259,3.926,3.8773,3.8784,3.8824,3.8852,3.8879,3.8907,3.8922,3.8954,3.8979,3.9016,3.904,3.9068,3.9105,3.9156,3.9179,3.9201,3.9213,3.9213,3.9214,3.9213,3.921,3.923,3.9207,3.9207,3.9208,3.9208,3.9208,0,3.8734,3.8763,3.8788,3.883,3.8852,3.8877,3.8912,3.8929,3.8953,3.8986,3.9012,3.9045,3.9075,3.9115,3.9148,3.9158,3.9172,3.9165,3.9165,3.9171,3.9197,3.9194,3.9153,3.9153,3.9153,3.9153,3.9153,3.9153,3.8717,3.8737,3.8762,3.8797,3.8825,3.8854,3.8872,3.8897,3.8924,3.896,3.8986,3.9012,3.9049,3.9084,3.9113,3.9124,3.9135,3.9124,3.914,3.9164,3.9169,3.9173,3.9171,3.9126,3.9126,3.9112,3.9112,3.9111]}]]